Terminal Aerodrome Forecast
Issued by NWS Lubbock, TX

Home | Current Version | Previous Version | Text Only | Print | Product List | Glossary On
Versions: 1 2 3 4 5 6 7 8 9 10 11 12 13 14 15 16 17 18 19 20 21 22 23 24 25 26
000
FTUS44 KLUB 240300 AAB
TAFLBB
TAF AMD
KLBB 240300Z 2403/2424 17011KT P6SM SCT110 OVC170
     FM240500 18011KT P6SM SCT004 BKN015
     FM241500 23011KT P6SM SCT025 BKN150=

USA.gov is the U.S. government's official web portal to all federal, state and local government web resources and services.